Location: Unspecified
(48.8656°N, 0.0000°E)
Time: 22:20:39
(UTC+00:00)

Transit 2A Rocket - Pass Details

Date: 23 June 2019
Orbit: 588 x 915 km, 66.7° (Epoch: 17 July)

Event Time Altitude Azimuth Distance (km) Brightness Sun altitude
Rises 13:14:38 0° 286° (WNW) 3,520 8.6 60.8°
Reaches altitude 10° 13:18:24 10° 308° (NW) 2,540 7.8 60.5°
Maximum altitude 13:21:43 15° 343° (NNW) 2,148 7.3 60.1°
Drops below altitude 10° 13:24:56 10° 18° (NNE) 2,440 7.4 59.8°
Sets 13:28:27 0° 41° (NE) 3,303 8.0 59.4°
